User: anonymous   Login
Location: Deer Path Park
(40.5570°N, 74.8450°W)
Time: 14:47:23
(UTC-04:00)
Language:

Iridium 49 - Orbit

View from above orbital plane
View from above orbital plane
View from above satellite
View from above satellite

Ground track
Ground track

The orbit data is extracted from the following two-line orbital elements,

1 25108U 97082E   16120.39966002  .00000209  00000-0  67671-4 0  9999
2 25108  86.3966  68.4057 0002136  84.4343  39.7306 14.34215501961060
Epoch (UTC): 29 April 2016 09:35:30
Eccentricity: 0.0002136
inclination: 86.3966°
perigee height: 776 km
apogee height: 779 km
right ascension of ascending node: 68.4057°
argument of perigee: 84.4343°
revolutions per day: 14.34215501
mean anomaly at epoch: 39.7306°
orbit number at epoch: 96106

The dashed part of the orbit path shows where the satellite is in the earth's shadow,  

DLR